Location: Weatherford
(35.5260°N, 98.7070°W)
Time: 14:56:20
(UTC-06:00)

Amateur Radio Satellites - All Passes

Search period start: 14 December 2017 14:26
Search period end: 15 December 2017 14:26
Location: Weatherford, 35.5260°N, 98.7070°W

Satellite Date Start Highest point End Downlink Frequencies (MHz)
Time Altitude Azimuth
SO-50 14 Dec 14:30:19 14:32:08 12° 108° (ESE) 14:33:57 436.795
AO-91 14 Dec 14:41:54 14:44:30 14° 266° (W) 14:46:59 145.960
BEESAT 14 Dec 14:47:41 14:48:37 10° 91° (E) 14:49:32 436.000
UKube-1 14 Dec 14:49:37 14:53:56 87° 288° (WNW) 14:58:14 .
Oscar 19 14 Dec 14:51:15 14:53:28 13° 268° (W) 14:55:43 437.125/150
NO-84 14 Dec 14:58:57 15:02:50 64° 230° (SW) 15:06:57 435.350 FM
DX 1 14 Dec 15:05:13 15:09:07 33° 289° (WNW) 15:13:00 434.975-435.025
ITUPSAT 1 14 Dec 15:13:25 15:17:04 21° 95° (E) 15:20:42 437.325
M-CUBED/EXP-1 PRIME 14 Dec 15:18:58 15:23:11 72° 255° (WSW) 15:27:42 437.505
AO-7 14 Dec 15:34:18 15:42:32 70° 255° (WSW) 15:50:51 .
DOVE 4 14 Dec 15:34:34 15:37:43 16° 66° (ENE) 15:40:48 437.250
CUBESAT XI-V 14 Dec 15:49:27 15:52:46 19° 94° (E) 15:56:03 437.345
ITAMSAT 1 14 Dec 15:59:33 16:04:38 54° 259° (W) 16:09:46 435.822/435.867
YUBILEINY 14 Dec 16:01:32 16:09:21 37° 274° (W) 16:17:08 435.215
MOZHAYETS 4 14 Dec 16:02:37 16:07:12 66° 285° (WNW) 16:11:47
SO-50 14 Dec 16:07:41 16:12:02 55° 302° (WNW) 16:16:28 436.795
RS-15 14 Dec 16:17:26 16:29:19 52° 308° (NW) 16:41:11 29.354- 29.394
BEESAT 14 Dec 16:22:01 16:26:45 65° 285° (WNW) 16:31:27 436.000
LilacSat-2 14 Dec 16:48:14 16:49:34 12° 67° (ENE) 16:50:54 437.200
ITUPSAT 1 14 Dec 16:50:37 16:54:53 33° 290° (WNW) 16:59:09 437.325
XW-2D 14 Dec 17:01:34 17:03:58 16° 69° (ENE) 17:06:21 145.860 - 145.880
NUDT-PHONESAT 14 Dec 17:07:37 17:08:57 12° 67° (ENE) 17:10:16 437.300
DOVE 4 14 Dec 17:09:41 17:14:53 57° 260° (W) 17:19:59 437.250
KAITUO 1B 14 Dec 17:10:29 17:12:28 14° 68° (ENE) 17:14:28 145.475/437.950
XW-2B 14 Dec 17:16:41 17:19:44 24° 71° (ENE) 17:22:49 145.730 - 145.750
nSIGHT-1 14 Dec 17:17:39 17:19:06 12° 26° (NNE) 17:20:32 .
CUTE-I 14 Dec 17:24:58 17:29:41 33° 69° (ENE) 17:34:26 437.470
CUBESAT XI-V 14 Dec 17:25:52 17:30:11 37° 288° (WNW) 17:34:28 437.345
XW-2F 14 Dec 17:28:30 17:31:50 31° 73° (ENE) 17:35:13 145.980 - 146.000
XW-2C 14 Dec 17:43:20 17:47:01 55° 75° (ENE) 17:50:44 145.795 - 145.815
PCSat 14 Dec 17:44:16 17:47:31 16° 104° (ESE) 17:50:45 145.827
KKS-1 14 Dec 17:52:56 17:57:22 78° 103° (ESE) 18:01:46 437.445
ISS 14 Dec 17:58:29 18:00:59 20° 31° (NNE) 18:03:28 437.550
HO-68 14 Dec 18:11:14 18:18:00 47° 68° (ENE) 18:24:49 435.675
CUTE 1.7 + AOD 2 14 Dec 18:14:16 18:17:57 30° 72° (ENE) 18:21:41 437.475
LilacSat-2 14 Dec 18:19:49 18:23:25 40° 262° (W) 18:27:03 437.200
XW-2D 14 Dec 18:34:37 18:37:51 27° 263° (W) 18:41:09 145.860 - 145.880
STARS 14 Dec 18:36:04 18:40:26 89° 309° (NW) 18:44:47 437.465
RS-15 14 Dec 18:37:58 18:45:41 18° 337° (NNW) 18:53:20 29.354- 29.394
NUDT-PHONESAT 14 Dec 18:38:58 18:42:23 37° 262° (W) 18:45:51 437.300
O/OREOS (USA 219) 14 Dec 18:42:14 18:46:40 57° 68° (ENE) 18:51:03 437.305
KAITUO 1B 14 Dec 18:42:46 18:46:06 31° 263° (W) 18:49:30 145.475/437.950
XW-2B 14 Dec 18:51:10 18:53:50 18° 265° (W) 18:56:31 145.730 - 145.750
nSIGHT-1 14 Dec 18:52:30 18:55:43 89° 44° (NE) 18:58:55 .
CUBEBUG 2 14 Dec 19:01:32 19:05:43 63° 77° (ENE) 19:09:50 437.445
UWE-3 14 Dec 19:01:41 19:05:24 32° 72° (ENE) 19:09:05 435.000/436.395/437.385
XW-2F 14 Dec 19:04:03 19:05:59 14° 267° (W) 19:07:57 145.980 - 146.000
CUTE-I 14 Dec 19:05:10 19:09:41 27° 264° (W) 19:14:13 437.470
BEESAT 3 14 Dec 19:07:23 19:08:13 11° 107° (ESE) 19:09:03 437.485
XW-2A 14 Dec 19:13:53 19:16:52 31° 73° (ENE) 19:19:52 145.665 - 145.685
STRAND 1 14 Dec 19:25:01 19:29:32 31° 97° (E) 19:34:02 437.568
PCSat 14 Dec 19:25:03 19:30:21 57° 299° (WNW) 19:35:41 145.827
SEEDS 14 Dec 19:26:22 19:30:32 61° 260° (W) 19:34:44 437.485
ZACube-1 14 Dec 19:26:44 19:30:23 31° 72° (ENE) 19:34:04 437.345
FO-29 14 Dec 19:30:05 19:32:03 11° 86° (E) 19:33:56 435.910
ISS 14 Dec 19:34:29 19:37:35 40° 227° (SW) 19:40:40 437.550
AAUSAT CUBESAT 2 14 Dec 19:45:08 19:49:18 89° 79° (E) 19:53:30 437.432
Oscar 11 14 Dec 19:46:10 19:49:56 31° 72° (ENE) 19:53:45 .
CUTE 1.7 + AOD 2 14 Dec 19:50:46 19:53:46 19° 266° (W) 19:56:49 437.475
HO-68 14 Dec 19:59:45 20:05:50 29° 263° (W) 20:11:57 435.675
AO-73 14 Dec 20:00:09 20:04:15 72° 76° (ENE) 20:08:22 145.935
O/OREOS (USA 219) 14 Dec 20:24:46 20:25:27 10° 263° (W) 20:26:09 437.305
UWE-3 14 Dec 20:39:18 20:41:54 16° 266° (W) 20:44:31 435.000/436.395/437.385
BEESAT 3 14 Dec 20:41:21 20:45:14 52° 302° (WNW) 20:49:09 437.485
DELFI C3 14 Dec 20:47:04 20:50:26 27° 72° (ENE) 20:53:50 145.870
XW-2A 14 Dec 20:49:21 20:49:38 10° 267° (W) 20:49:55 145.665 - 145.685
Max Valier Satellite 14 Dec 20:56:36 20:59:25 21° 71° (ENE) 21:02:14 145.860
RS-15 14 Dec 20:58:50 21:05:26 16° 16° (NNE) 21:11:51 29.354- 29.394
ZACube-1 14 Dec 21:04:04 21:06:42 16° 266° (W) 21:09:21 437.345
STRAND 1 14 Dec 21:04:23 21:08:32 26° 292° (WNW) 21:12:42 437.568
FO-29 14 Dec 21:11:18 21:18:09 86° 285° (WNW) 21:24:07 435.910
BEESAT 2 14 Dec 21:21:21 21:25:20 74° 300° (WNW) 21:29:23 435.950
AO-85 14 Dec 21:21:39 21:24:36 21° 110° (ESE) 21:27:38 145.980
Oscar 11 14 Dec 21:23:02 21:26:05 19° 266° (W) 21:29:08 .
EO-88 14 Dec 21:23:51 21:27:07 32° 73° (ENE) 21:30:23 145.990 - 145.960
FALCONSAT 3 14 Dec 22:05:28 22:08:43 30° 157° (SSE) 22:11:58 435.103
TIGRISAT 14 Dec 22:12:44 22:17:02 58° 100° (E) 22:21:25 435.000
UNISAT 6 14 Dec 22:16:01 22:20:22 71° 101° (E) 22:24:49 437.425
DELFI C3 14 Dec 22:22:20 22:25:08 18° 265° (W) 22:27:56 145.870
Max Valier Satellite 14 Dec 22:30:30 22:33:08 19° 265° (W) 22:35:45 145.860
PRISM 14 Dec 22:52:27 22:56:25 46° 100° (E) 23:00:19 437.425
FO-29 14 Dec 22:59:08 23:01:54 13° 304° (NW) 23:04:35 435.910
EO-88 14 Dec 22:59:17 23:00:49 12° 267° (W) 23:02:20 145.990 - 145.960
AO-85 14 Dec 23:01:31 23:04:48 25° 307° (NW) 23:08:14 145.980
RS-15 14 Dec 23:11:25 23:22:29 43° 48° (NE) 23:32:56 29.354- 29.394
LO-87 14 Dec 23:27:01 23:30:26 46° 261° (W) 23:33:52 145.935 - 145.965
VELOX 1 14 Dec 23:28:18 23:30:33 14° 65° (ENE) 23:32:46 145.980
ESTCUBE 1 14 Dec 23:29:34 23:34:04 75° 258° (WSW) 23:38:36 437.505/2401.250
QB50P2 14 Dec 23:41:08 23:44:20 21° 95° (E) 23:47:32 145.880/145.840
FALCONSAT 3 14 Dec 23:43:54 23:47:35 78° 173° (S) 23:51:16 435.103
DUCHIFAT 1 14 Dec 23:46:28 23:49:01 16° 94° (E) 23:51:33 145.980
TIGRISAT 14 Dec 23:51:57 23:53:13 11° 294° (WNW) 23:54:29 435.000
AIST 2D 15 Dec 00:00:54 00:04:23 57° 284° (WNW) 00:07:51 435.315
SPROUT 15 Dec 00:05:06 00:09:16 60° 75° (ENE) 00:13:27 437.525
NANOSAT C BR1 15 Dec 00:11:53 00:15:48 37° 99° (E) 00:19:42 145.865
DX 1 15 Dec 00:24:12 00:25:36 11° 64° (ENE) 00:27:00 434.975-435.025
EO-79 15 Dec 00:27:09 00:31:21 68° 101° (E) 00:35:33 145.935-145.965
PRISM 15 Dec 00:29:38 00:31:12 12° 295° (WNW) 00:32:46 437.425
50 SAT 15 Dec 00:36:19 00:36:35 10° 68° (ENE) 00:36:50 437.505
SO-50 15 Dec 00:41:21 00:45:58 55° 58° (ENE) 00:50:37 436.795
POLYITAN 1 15 Dec 00:50:15 00:54:25 62° 285° (WNW) 00:58:36 437.675
VELOX 1 15 Dec 01:02:13 01:06:31 49° 260° (W) 01:10:51 145.980
QB50P2 15 Dec 01:16:30 01:20:03 27° 289° (WNW) 01:23:37 145.880/145.840
DUCHIFAT 1 15 Dec 01:20:55 01:24:44 35° 288° (WNW) 01:28:33 145.980
FALCONSAT 3 15 Dec 01:22:59 01:26:40 84° 186° (S) 01:30:21 435.103
Oscar 19 15 Dec 01:23:45 01:28:11 28° 96° (E) 01:32:35 437.125/150
RS-15 15 Dec 01:24:01 01:35:09 55° 250° (WSW) 01:45:45 29.354- 29.394
UKube-1 15 Dec 01:40:40 01:44:51 52° 74° (ENE) 01:49:03 .
NANOSAT C BR1 15 Dec 01:48:40 01:51:10 15° 292° (WNW) 01:53:38 145.865
DX 1 15 Dec 01:56:55 02:01:14 58° 259° (W) 02:05:33 434.975-435.025
BUGSAT 1 15 Dec 02:00:03 02:04:00 55° 285° (WNW) 02:07:59 437.445
50 SAT 15 Dec 02:05:21 02:08:10 29° 262° (W) 02:10:59 437.505
Gurwin Techsat 1B 15 Dec 02:07:25 02:12:38 55° 100° (E) 02:17:49 435.225
ITUPSAT 1 15 Dec 02:17:42 02:20:59 19° 66° (ENE) 02:24:15 437.325
SO-50 15 Dec 02:23:30 02:25:57 14° 252° (WSW) 02:28:25 436.795
AO-91 15 Dec 02:32:54 02:36:07 39° 286° (WNW) 02:39:16 145.960
CUBESAT XI-V 15 Dec 02:50:48 02:53:08 14° 65° (ENE) 02:55:28 437.345
MOZHAYETS 4 15 Dec 03:01:03 03:05:35 82° 77° (ENE) 03:10:10
YUBILEINY 15 Dec 03:01:08 03:09:35 54° 90° (E) 03:18:05 435.215
FALCONSAT 3 15 Dec 03:02:12 03:05:36 36° 201° (SSW) 03:08:59 435.103
Oscar 19 15 Dec 03:02:54 03:07:24 30° 291° (WNW) 03:11:54 437.125/150
M-CUBED/EXP-1 PRIME 15 Dec 03:03:27 03:04:09 10° 94° (E) 03:04:51 437.505
UKube-1 15 Dec 03:19:48 03:21:07 11° 268° (W) 03:22:25 .
BEESAT 15 Dec 03:25:02 03:29:46 80° 255° (WSW) 03:34:33 436.000
JUGNU 15 Dec 03:38:03 03:40:28 13° 168° (SSE) 03:42:52 437.505
AO-7 15 Dec 03:39:20 03:47:25 50° 102° (ESE) 03:55:25 .
Gurwin Techsat 1B 15 Dec 03:48:46 03:52:04 17° 296° (WNW) 03:55:23 435.225
ITUPSAT 1 15 Dec 03:54:02 03:58:28 39° 261° (W) 04:02:56 437.325
ITAMSAT 1 15 Dec 04:15:16 04:20:26 68° 102° (ESE) 04:25:33 435.822/435.867
PCSat 15 Dec 04:15:46 04:21:08 60° 61° (ENE) 04:26:28 145.827
CUBESAT XI-V 15 Dec 04:25:27 04:29:59 53° 260° (W) 04:34:35 437.345
M-CUBED/EXP-1 PRIME 15 Dec 04:34:31 04:38:55 59° 290° (WNW) 04:43:01 437.505
KKS-1 15 Dec 04:47:40 04:51:58 48° 73° (ENE) 04:56:16 437.445
YUBILEINY 15 Dec 04:59:16 05:06:40 30° 288° (WNW) 05:14:10 435.215
BEESAT 3 15 Dec 05:00:45 05:04:16 31° 55° (NE) 05:07:43 437.485
DOVE 4 15 Dec 05:12:13 05:16:30 48° 99° (E) 05:20:34 437.250
JUGNU 15 Dec 05:25:03 05:28:41 17° 179° (S) 05:32:20 437.505
STARS 15 Dec 05:29:16 05:33:32 53° 74° (ENE) 05:37:50 437.465
AO-7 15 Dec 05:32:33 05:39:49 35° 298° (WNW) 05:47:06 .
BEESAT 2 15 Dec 05:42:00 05:45:19 24° 53° (NE) 05:48:35 435.950
CUTE-I 15 Dec 05:45:59 05:49:12 16° 93° (E) 05:52:23 437.470
AO-85 15 Dec 05:55:06 05:57:31 14° 47° (NE) 06:00:00 145.980
LilacSat-2 15 Dec 05:56:02 05:59:14 24° 96° (E) 06:02:23 437.200
ITAMSAT 1 15 Dec 05:56:53 05:59:16 13° 297° (WNW) 06:01:39 435.822/435.867
PCSat 15 Dec 06:00:53 06:03:57 15° 256° (WSW) 06:07:01 145.827
XW-2D 15 Dec 06:09:22 06:12:53 34° 97° (E) 06:16:23 145.860 - 145.880
NO-84 15 Dec 06:11:43 06:14:31 48° 129° (SE) 06:17:31 435.350 FM
NUDT-PHONESAT 15 Dec 06:11:56 06:14:56 22° 96° (E) 06:17:54 437.300
SRMSAT 15 Dec 06:14:58 06:16:59 12° 167° (SSE) 06:18:59 437.500
KAITUO 1B 15 Dec 06:16:25 06:19:41 27° 97° (E) 06:22:56 145.475/437.950
XW-2B 15 Dec 06:25:04 06:28:51 53° 99° (E) 06:32:35 145.730 - 145.750
KKS-1 15 Dec 06:26:41 06:28:44 13° 267° (W) 06:30:46 437.445
XW-2F 15 Dec 06:36:37 06:40:27 72° 101° (E) 06:44:15 145.980 - 146.000
STRAND 1 15 Dec 06:37:56 06:42:30 34° 70° (ENE) 06:47:03 437.568
BEESAT 3 15 Dec 06:38:55 06:41:30 17° 250° (WSW) 06:44:04 437.485
DOVE 4 15 Dec 06:51:43 06:53:39 13° 295° (WNW) 06:55:33 437.250
XW-2C 15 Dec 06:52:29 06:56:18 62° 283° (WNW) 07:00:05 145.795 - 145.815
CUBEBUG 2 15 Dec 06:55:52 06:58:37 16° 94° (E) 07:01:25 437.445
STARS 15 Dec 07:08:50 07:10:08 11° 268° (W) 07:11:26 437.465
SEEDS 15 Dec 07:13:22 07:16:57 26° 96° (E) 07:20:30 437.485
JUGNU 15 Dec 07:13:53 07:16:56 14° 189° (S) 07:19:59 437.505
FO-29 15 Dec 07:18:09 07:24:57 35° 66° (ENE) 07:31:52 435.910
BEESAT 2 15 Dec 07:19:40 07:22:55 24° 249° (WSW) 07:26:06 435.950
CUTE-I 15 Dec 07:24:20 07:29:30 53° 288° (WNW) 07:34:39 437.470
HO-68 15 Dec 07:29:17 07:36:24 65° 103° (ESE) 07:43:28 435.675
LilacSat-2 15 Dec 07:30:29 07:33:18 19° 290° (WNW) 07:36:06 437.200
AAUSAT CUBESAT 2 15 Dec 07:31:08 07:33:52 17° 94° (E) 07:36:34 437.432
AO-85 15 Dec 07:33:31 07:38:25 82° 243° (WSW) 07:43:39 145.980
CUTE 1.7 + AOD 2 15 Dec 07:36:56 07:41:14 89° 296° (WNW) 07:45:30 437.475
XW-2D 15 Dec 07:44:42 07:46:43 14° 292° (WNW) 07:48:44 145.860 - 145.880
NUDT-PHONESAT 15 Dec 07:45:52 07:48:35 19° 290° (WNW) 07:51:18 437.300
NO-84 15 Dec 07:50:29 07:52:01 13° 328° (NNW) 07:53:37 435.350 FM
KAITUO 1B 15 Dec 07:51:00 07:53:24 16° 291° (WNW) 07:55:48 145.475/437.950
AO-73 15 Dec 07:51:32 07:54:31 18° 94° (E) 07:57:32 145.935
SRMSAT 15 Dec 08:01:38 08:05:22 17° 177° (S) 08:09:07 437.500
XW-2A 15 Dec 08:10:08 08:13:29 52° 99° (E) 08:16:50 145.665 - 145.685
STRAND 1 15 Dec 08:17:33 08:21:39 24° 264° (W) 08:25:48 437.568
UWE-3 15 Dec 08:29:21 08:33:40 70° 284° (WNW) 08:38:07 435.000/436.395/437.385
CUBEBUG 2 15 Dec 08:31:22 08:35:17 35° 287° (WNW) 08:39:17 437.445
SEEDS 15 Dec 08:49:13 08:52:26 21° 290° (WNW) 08:55:39 437.485
O/OREOS (USA 219) 15 Dec 08:51:09 08:55:41 66° 290° (WNW) 09:00:16 437.305
ZACube-1 15 Dec 08:52:55 08:57:18 75° 283° (WNW) 09:01:45 437.345
FO-29 15 Dec 09:02:21 09:09:38 46° 262° (W) 09:17:09 435.910
AAUSAT CUBESAT 2 15 Dec 09:05:39 09:09:20 31° 288° (WNW) 09:12:59 437.432
TIGRISAT 15 Dec 09:08:37 09:12:29 33° 72° (ENE) 09:16:19 435.000
Oscar 11 15 Dec 09:11:31 09:15:54 83° 281° (W) 09:20:14 .
UNISAT 6 15 Dec 09:11:53 09:15:56 40° 73° (ENE) 09:19:56 437.425
HO-68 15 Dec 09:18:17 09:23:29 22° 299° (WNW) 09:28:40 435.675
AO-73 15 Dec 09:26:48 09:30:46 34° 287° (WNW) 09:34:48 145.935
PRISM 15 Dec 09:38:55 09:42:11 23° 70° (ENE) 09:45:27 437.425
SRMSAT 15 Dec 09:50:20 09:53:48 16° 187° (S) 09:57:16 437.500
nSIGHT-1 15 Dec 09:53:53 09:54:32 10° 126° (SE) 09:55:11 .
DELFI C3 15 Dec 10:00:30 10:04:26 67° 101° (E) 10:08:18 145.870
Max Valier Satellite 15 Dec 10:01:51 10:05:26 44° 99° (E) 10:09:00 145.860
EO-88 15 Dec 10:28:06 10:31:45 66° 100° (E) 10:35:22 145.990 - 145.960
AIST 2D 15 Dec 10:32:00 10:34:59 27° 73° (ENE) 10:38:00 435.315
QB50P2 15 Dec 10:32:45 10:33:57 11° 65° (ENE) 10:35:07 145.880/145.840
ISS 15 Dec 10:36:11 10:38:54 24° 130° (SE) 10:41:37 437.550
TIGRISAT 15 Dec 10:46:26 10:49:13 17° 266° (W) 10:51:59 435.000
UNISAT 6 15 Dec 10:50:33 10:52:46 14° 267° (W) 10:54:59 437.425
LO-87 15 Dec 10:57:29 10:59:33 15° 94° (E) 11:01:37 145.935 - 145.965
NANOSAT C BR1 15 Dec 11:01:35 11:04:32 19° 69° (ENE) 11:07:30 145.865
PRISM 15 Dec 11:13:53 11:17:17 24° 264° (W) 11:20:43 437.425
EO-79 15 Dec 11:16:31 11:20:15 32° 72° (ENE) 11:24:01 145.935-145.965
ESTCUBE 1 15 Dec 11:25:19 11:29:15 28° 97° (E) 11:33:08 437.505/2401.250
nSIGHT-1 15 Dec 11:27:11 11:30:20 56° 320° (NW) 11:33:31 .
Max Valier Satellite 15 Dec 11:38:14 11:38:48 10° 293° (WNW) 11:39:21 145.860
POLYITAN 1 15 Dec 11:39:17 11:43:25 63° 76° (ENE) 11:47:33 437.675
SPROUT 15 Dec 11:55:23 11:57:11 12° 92° (E) 11:58:59 437.525
QB50P2 15 Dec 12:05:07 12:09:13 53° 260° (W) 12:13:20 145.880/145.840
AIST 2D 15 Dec 12:06:24 12:08:10 13° 267° (W) 12:09:56 435.315
DUCHIFAT 1 15 Dec 12:08:49 12:12:58 75° 258° (WSW) 12:17:08 145.980
ISS 15 Dec 12:12:24 12:15:17 28° 326° (NW) 12:18:11 437.550
LO-87 15 Dec 12:29:59 12:32:55 25° 288° (WNW) 12:35:52 145.935 - 145.965
NANOSAT C BR1 15 Dec 12:36:22 12:40:00 29° 263° (W) 12:43:39 145.865
Oscar 19 15 Dec 12:37:42 12:42:08 30° 69° (ENE) 12:46:35 437.125/150
BUGSAT 1 15 Dec 12:46:14 12:50:14 63° 76° (ENE) 12:54:13 437.445
NO-84 15 Dec 12:46:57 12:48:51 13° 33° (NNE) 12:50:48 435.350 FM
EO-79 15 Dec 12:53:21 12:56:03 17° 266° (W) 12:58:46 145.935-145.965
VELOX 1 15 Dec 12:55:04 12:59:10 37° 98° (E) 13:03:12 145.980
ESTCUBE 1 15 Dec 13:02:17 13:05:51 23° 291° (WNW) 13:09:24 437.505/2401.250
YUBILEINY 15 Dec 13:16:08 13:22:38 22° 69° (ENE) 13:29:04 435.215
AO-91 15 Dec 13:25:13 13:30:14 88° 257° (WSW) 13:34:48 145.960
Gurwin Techsat 1B 15 Dec 13:25:23 13:30:38 65° 74° (ENE) 13:35:55 435.225
50 SAT 15 Dec 13:25:33 13:26:38 11° 94° (E) 13:27:44 437.505
SPROUT 15 Dec 13:29:13 13:33:15 44° 287° (WNW) 13:37:17 437.525
RS-15 15 Dec 13:30:52 13:41:19 35° 104° (ESE) 13:51:44 29.354- 29.394
UKube-1 15 Dec 13:33:25 13:34:08 10° 92° (E) 13:34:51 .
DX 1 15 Dec 13:48:17 13:52:03 28° 98° (E) 13:55:47 434.975-435.025
Oscar 19 15 Dec 14:17:03 14:21:22 27° 264° (W) 14:25:43 437.125/150
